User: anonymous
Location: Unspecified
(0.0000°N, 0.0000°E)
Time: 01:57:33
(UTC+02:00)
Language:

Cosmos 1300 - Orbit

View from above orbital plane
View from above orbital plane
View from above satellite
View from above satellite

Ground track
Ground track

The orbit data is extracted from the following two-line orbital elements,

1 12785U 81082A   14272.89617119  .00005408  00000-0  31561-3 0  8311
2 12785 082.5083 330.8392 0002587 089.3957 323.4954 15.11755662801741
Epoch (UTC): 29 September 2014 21:30:29
Eccentricity: 0.0002587
inclination: 82.5083°
perigee height: 529 km
apogee height: 532 km
right ascension of ascending node: 330.8392°
argument of perigee: 89.3957°
revolutions per day: 15.11755662
mean anomaly at epoch: 323.4954°
orbit number at epoch: 80174

The dashed part of the orbit path shows where the satellite is in the earth's shadow,  

DLR